Home   Weather   Douai   Past weeks

Flag for France Past Weather in Douai, Nord-Pas-de-Calais, France — Yesterday and Last 2 Weeks

Now
64 °F

Mostly cloudy.


Feels Like: 64 °F
Forecast: 49 / 64 °F
Wind: 12 mph from Southwest

Location: Lille Airport

Current Time: Sep 30, 2016 at 5:22:26 PM

Latest Report: Sep 30, 2016 at 5:00 PM


Visibility: N/A

Pressure: 29.95 "Hg

Humidity: 60%

Dew Point: 50 °F

Location of DouaiLocation

Past Weather in Douai — Graph

°F

Douai Temperature Yesterday

Maximum temperature yesterday: 64 °F (at 1:00 PM)
Minimum temperature yesterday: 57 °F (at 12:30 AM)
Average temperature yesterday: 60 °F

High & Low Weather Summary for the Past Weeks

 TemperatureHumidityPressure
High75 °F (Sep 15, 4:00 PM)100% (Sep 16, 2:00 AM)30.33 "Hg (Sep 16, 2:00 AM)
Low45 °F (Sep 27, 8:00 AM)36% (Sep 24, 3:30 PM)29.83 "Hg (Sep 15, 4:00 PM)
Average61 °F78%30.10 "Hg
* Reported Sep 15 4:00 PM — Sep 30 4:00 PM, Douai, Weather by CustomWeather, © 2016

Note: Actual official high and low records may vary slightly from our data, if they occured in-between our weather recording intervals... More about our weather records

Advertising

Douai Weather History for the Previous 24 Hours

Scroll right to see more
 ConditionsComfort  
Time TempWeatherWind HumidityBarometerVisibility
4:00 PM
Fri, Sep 30
66 °FPartly sunny.12 mph52%29.95 "HgN/A
3:30 PM64 °FSunny.10 mph56%29.95 "Hg10 mi
3:00 PM63 °FMore clouds than sun.13 mph64%29.98 "HgN/A
2:30 PM64 °FBroken clouds.10 mph60%29.98 "HgN/A
2:00 PM63 °FMore clouds than sun.9 mph68%29.98 "HgN/A
1:30 PM63 °FBroken clouds.8 mph68%29.98 "HgN/A
1:00 PM63 °FCloudy.10 mph68%29.98 "HgN/A
12:30 PM61 °FOvercast.7 mph77%29.98 "HgN/A
12:00 PM61 °FPartly sunny.6 mph83%29.98 "HgN/A
11:30 AM59 °FMostly cloudy.7 mph82%29.98 "HgN/A
11:00 AM57 °FOvercast.7 mph88%29.98 "HgN/A
10:30 AM57 °FSunny.6 mph88%29.98 "Hg10 mi
10:00 AM57 °FSunny.5 mph88%29.98 "Hg10 mi
9:30 AM55 °FSunny.1 mph94%29.95 "Hg10 mi
9:00 AM54 °FSunny.1 mph100%29.95 "Hg10 mi
8:30 AM54 °FSunny.1 mph100%29.95 "Hg10 mi
8:00 AM54 °FBroken clouds.2 mph100%29.95 "HgN/A
7:30 AM55 °FPassing clouds.5 mph94%29.95 "HgN/A
7:00 AM54 °FClear.5 mph100%29.95 "Hg10 mi
6:30 AM54 °FClear.3 mph94%29.95 "Hg10 mi
6:00 AM54 °FClear.2 mph100%29.95 "Hg10 mi
5:30 AM55 °FClear.3 mph94%29.95 "Hg10 mi
5:00 AM55 °FMostly cloudy.6 mph94%29.95 "HgN/A
4:30 AM55 °FMostly cloudy.7 mph94%29.95 "HgN/A
4:00 AM55 °FOvercast.7 mph100%29.95 "HgN/A
3:30 AM55 °FClear.7 mph94%29.95 "Hg10 mi
3:00 AM55 °FClear.7 mph94%29.95 "Hg10 mi
2:30 AM57 °FClear.6 mph94%29.95 "Hg10 mi
2:00 AM57 °FClear.5 mph94%29.98 "Hg10 mi
1:30 AM57 °FClear.5 mph94%29.98 "Hg10 mi
1:00 AM57 °FClear.5 mph94%29.98 "Hg10 mi
12:30 AM59 °FClear.7 mph88%29.98 "Hg10 mi
12:00 AM59 °FMostly cloudy.5 mph88%29.98 "HgN/A
11:30 PM
Thu, Sep 29
59 °FClear.5 mph94%29.98 "Hg10 mi
11:00 PM59 °FPassing clouds.6 mph94%29.98 "HgN/A
10:30 PM59 °FClear.6 mph88%29.98 "Hg10 mi
10:00 PM59 °FClear.7 mph88%29.98 "Hg10 mi
9:30 PM59 °FClear.8 mph88%29.98 "Hg10 mi
9:00 PM59 °FMostly cloudy.9 mph88%29.98 "HgN/A
8:30 PM57 °FLight rain. Mostly cloudy.10 mph94%29.98 "HgN/A
8:00 PM59 °FMostly cloudy.12 mph94%29.98 "HgN/A
7:30 PM57 °FPassing clouds.17 mph94%30.01 "Hg5 mi
7:00 PM61 °FLight rain. Fog.17 mph94%29.98 "Hg2 mi
6:30 PM64 °FMostly cloudy.14 mph78%29.98 "HgN/A
6:00 PM64 °FMostly cloudy.16 mph78%29.98 "HgN/A
5:30 PM64 °FOvercast.17 mph78%29.98 "HgN/A
5:00 PM64 °FOvercast.14 mph73%29.98 "HgN/A
Weather by CustomWeather, © 2016

See weather overviewHow to use our weather pages